Tracking 31027 objects as of 19-Jul-2025
HD Live streaming from Space Station
objects crossing your sky now

STARLINK-32370

Track STARLINK-32370 now!
10-day predictions
STARLINK-32370 is classified as:


NORAD ID: 61635
Int'l Code: 2024-191Q
Perigee: 489.3 km
Apogee: 491.2 km
Inclination: 43.0 °
Period: 94.3 minutes
Semi major axis: 6861 km
RCS: Unknown
Launch date: October 23, 2024
Source: United States (US)
Launch site: AIR FORCE EASTERN TEST RANGE (AFETR)
Your satellite tracking list
FLOCK 4Q 34
Track 1 satellite(s)




NASA's NSSDC Master Catalog

Two Line Element Set (TLE):
1 61635U 24191Q   25199.56456164  .00003738  00000-0  14537-3 0  9995
2 61635  43.0017  36.4004 0001430 275.1086  84.9603 15.27558102 42431
Source of the keplerian elements: AFSPC